Lapse_Rate
3.4 3.3 3.3 3.3 3.4 3.4 3.5 3.7 3.8 3.9 4.0 4.2 4.4 4.7 4.9 5.0 5.1 5.1 5.1 5.3 5.3 5.4 5.5 5.6 5.7 5.8 5.8 5.9 5.9 6.0 6.0 6.0 6.0 6.1 6.1 6.1 6.1 6.2
3.0 3.0 3.2 3.3 3.4 3.4 3.5 3.5 3.6 3.7 3.7 3.7 3.9 4.1 4.3 4.5 4.7 5.0 5.1 5.2 5.2 5.3 5.2 5.3 5.4 5.5 5.4 5.5 5.6 5.7 5.7 5.7 5.8 5.9 6.1 6.1 6.2 6.2
2.9 3.0 3.2 3.2 3.4 3.4 3.4 3.5 3.6 3.7 3.9 3.7 3.7 3.7 4.0 4.0 4.1 4.4 4.7 4.8 4.9 5.0 5.1 5.2 5.2 5.2 5.3 5.3 5.4 5.6 5.6 5.6 5.6 5.7 5.8 5.9 5.9 5.9
3.4 3.5 3.8 3.7 3.7 4.1 4.1 4.2 4.1 4.0 4.0 4.2 3.8 3.7 3.7 3.7 3.8 3.8 3.7 4.0 4.2 4.3 4.4 4.5 4.6 4.8 5.0 5.2 5.2 5.4 5.5 5.4 5.4 5.3 5.4 5.6 5.4 5.4
3.3 3.3 3.6 3.7 3.6 3.8 3.9 3.9 3.9 4.0 4.0 4.1 4.3 3.8 3.7 3.6 3.6 3.6 3.5 3.5 3.5 3.7 3.7 3.8 3.9 4.2 4.4 4.5 4.7 4.9 5.1 5.2 5.0 5.0 5.0 4.9 4.9 4.8
3.3 3.4 3.6 3.6 3.7 3.6 3.6 3.6 3.5 3.6 3.5 3.7 3.9 4.1 3.9 3.6 3.6 3.6 3.5 3.5 3.5 3.4 3.5 3.6 3.5 3.6 3.6 3.6 3.8 3.9 4.4 4.6 4.7 4.7 4.6 4.6 4.5 4.5
3.4 3.3 3.5 3.3 3.3 3.3 3.3 3.1 3.1 3.1 3.1 3.2 3.3 3.4 3.3 3.1 2.9 2.9 3.0 3.2 3.1 3.0 3.2 3.4 3.4 3.0 2.9 2.9 3.0 3.2 3.4 3.6 3.7 3.8 3.9 4.1 4.1 4.1
3.6 3.4 3.5 3.3 3.2 3.1 2.9 2.9 2.8 2.7 2.7 2.6 2.7 2.8 2.8 2.8 2.5 2.4 2.3 2.2 2.3 1.9 2.1 2.6 2.5 2.6 2.6 2.7 2.7 2.6 2.8 3.0 3.2 3.3 3.4 3.3 3.4 3.6
3.9 3.8 3.6 3.6 3.5 3.5 3.4 3.2 3.2 3.0 2.9 2.8 2.6 2.6 2.4 2.4 2.2 2.2 2.2 2.1 1.9 1.8 1.7 1.9 1.9 1.9 2.1 2.4 2.6 2.7 2.6 2.6 2.6 2.8 2.9 3.0 3.1 3.2
4.1 3.9 3.9 4.0 3.8 3.7 3.6 3.6 3.6 3.4 3.3 3.1 3.1 3.4 3.2 2.9 2.7 2.8 2.8 2.7 2.6 2.3 1.8 1.9 2.3 2.3 2.2 2.1 2.2 2.3 2.3 2.4 2.6 2.6 2.7 2.9 3.1 3.2
4.0 3.8 3.7 3.7 3.7 3.6 3.5 3.5 3.5 3.4 3.3 3.3 3.3 3.3 3.3 3.2 3.1 3.1 3.0 3.0 3.0 3.1 2.9 2.7 2.9 2.8 2.5 2.5 2.6 2.6 2.5 2.5 2.6 2.7 2.8 2.9 3.1 3.1
3.6 3.5 3.4 3.5 3.5 3.5 3.4 3.5 3.5 3.7 3.5 3.3 3.2 3.1 3.2 3.3 3.2 3.2 3.0 3.0 3.1 3.1 3.1 2.9 2.9 2.8 3.0 3.2 3.2 3.3 3.3 3.3 3.2 3.2 3.1 3.0 3.0 3.0
3.5 3.5 3.4 3.4 3.5 3.5 3.4 3.2 3.4 3.4 3.3 2.9 3.2 3.4 3.3 3.2 3.1 3.0 2.8 2.6 2.7 2.9 3.1 3.1 3.1 3.1 3.0 3.1 3.5 3.6 3.6 3.7 3.7 3.6 3.5 3.5 3.6 3.6
3.6 3.5 3.5 3.5 3.4 3.3 3.3 3.2 2.9 2.8 2.4 2.6 2.7 3.0 3.0 3.0 3.1 3.2 3.3 3.3 3.1 2.9 3.0 3.2 3.0 2.9 3.1 3.2 3.1 3.5 3.7 3.8 3.6 3.6 3.6 3.6 3.6 3.6
3.7 3.6 3.5 3.4 3.4 3.4 3.4 3.1 2.9 2.8 2.9 2.8 3.0 3.2 3.3 3.4 3.5 3.6 3.6 3.5 3.4 3.3 3.1 3.1 3.3 3.2 3.0 3.1 3.2 3.3 3.3 3.6 3.6 3.7 3.7 3.7 3.7 3.6
3.6 3.6 3.7 3.7 3.8 3.8 3.7 4.0 3.9 3.9 3.9 4.0 4.1 4.3 4.5 4.5 4.5 4.6 4.6 4.6 4.2 4.2 3.9 3.5 3.4 3.5 3.4 3.1 2.9 3.2 3.3 3.5 4.0 3.9 3.8 3.8 3.8 3.8
3.8 3.9 4.0 4.2 4.3 4.6 5.0 5.1 5.0 5.1 5.2 5.2 5.4 5.6 5.7 5.8 5.8 5.7 5.7 5.6 5.4 5.3 5.2 5.0 4.5 4.2 4.0 3.9 3.8 3.5 3.7 4.0 4.4 4.6 4.2 4.2 4.3 4.3
4.2 4.5 4.9 5.2 5.4 5.8 5.9 5.9 6.0 6.1 6.2 6.3 6.4 6.4 6.4 6.4 6.3 6.2 6.1 5.9 5.7 5.6 5.3 5.3 5.1 5.0 4.7 4.7 4.6 4.8 4.8 4.8 4.9 4.9 5.0 5.1 5.5 5.6
5.5 5.7 5.8 6.0 6.3 6.4 6.4 6.5 6.6 6.6 6.6 6.6 6.6 6.7 6.7 6.7 6.7 6.7 6.5 6.1 5.8 5.6 5.6 5.4 5.3 5.1 4.8 4.8 5.0 4.4 4.2 4.6 4.7 5.1 5.3 5.4 5.5 5.7
6.3 6.5 6.6 6.6 6.7 6.8 6.8 6.8 6.8 6.8 6.8 6.8 6.8 6.8 6.9 6.7 6.8 6.8 6.6 6.2 6.0 5.9 5.8 5.7 5.6 5.2 4.5 4.5 4.6 5.2 4.7 4.4 4.9 5.0 5.2 5.3 5.3 5.4
6.9 6.9 6.9 6.9 6.9 6.9 6.9 6.9 6.9 7.0 7.0 7.0 6.9 6.8 6.8 6.7 6.8 6.7 6.5 6.3 6.0 6.0 6.0 6.2 5.7 5.2 5.0 4.7 4.6 5.3 5.9 5.6 4.8 4.6 4.8 4.8 5.0 5.2
6.9 6.9 6.9 6.9 6.9 7.0 7.0 7.0 7.0 7.0 7.0 6.9 6.9 6.8 6.8 6.7 6.7 6.6 6.5 6.3 6.2 5.9 5.9 6.0 5.9 5.4 5.1 4.9 4.9 4.9 5.2 5.5 5.4 5.0 4.6 4.4 4.5 4.7
7.0 6.9 6.9 7.0 7.0 7.0 7.1 7.1 7.1 7.2 7.1 7.0 6.9 6.9 6.9 6.8 6.6 6.5 6.4 6.2 6.1 6.0 5.9 5.9 5.8 5.7 5.5 5.3 5.1 4.9 5.1 5.2 5.3 5.4 5.4 5.1 4.5 4.0
Wind_Speed
2 1 1 1 1 1 1 1 1 1 2 3 2 4 3 1 3 6 5 10 12 13 13 11 10 10 10 10 9 9 9 10 10 10 11 12 12 11
1 3 2 0 1 0 1 1 1 2 2 2 2 3 8 9 11 12 9 10 10 12 12 12 12 12 13 13 12 11 11 11 11 11 11 11 12 12
1 2 3 1 2 1 2 2 2 2 2 4 2 5 4 7 13 15 12 11 12 12 12 12 13 14 14 15 16 15 14 14 14 13 12 12 12 13
3 2 3 3 3 3 3 3 3 3 3 6 3 2 3 8 12 14 15 13 14 14 15 15 15 16 16 17 17 17 17 17 17 16 14 13 13 13
4 4 4 4 4 3 4 3 3 4 3 3 4 1 2 5 5 10 12 13 14 15 17 15 13 14 15 16 17 17 18 18 18 17 17 17 16 16
6 5 5 5 5 4 4 5 4 3 3 3 3 4 3 5 4 6 6 4 6 13 13 14 17 16 18 18 17 17 17 17 17 18 19 19 19 18
5 6 8 11 12 11 5 5 4 3 3 4 4 5 6 6 6 4 4 5 4 9 4 9 10 16 18 19 17 17 16 16 16 16 17 18 19 19
5 5 8 13 14 16 17 16 13 6 8 6 7 7 9 7 4 5 5 6 5 12 3 4 10 5 14 18 18 22 24 24 22 21 21 21 21 22
6 6 7 11 15 10 15 16 15 17 16 9 10 9 9 5 6 8 8 6 5 5 4 7 6 7 15 17 23 24 24 24 25 23 22 24 25 25
6 6 6 6 9 8 7 7 7 7 10 11 6 6 9 12 10 9 9 8 6 6 11 10 5 7 12 15 20 21 22 25 26 27 29 31 29 28
6 9 7 7 13 18 9 6 6 7 17 21 22 23 25 26 24 10 7 6 8 8 6 5 5 5 3 4 14 21 28 31 29 30 29 26 27 27
6 7 18 13 18 21 10 6 5 9 7 9 11 16 19 15 18 14 5 7 8 9 6 6 4 2 3 4 14 15 14 13 17 20 22 23 25 17
6 6 6 17 19 19 18 6 8 9 11 5 3 5 5 7 11 14 14 6 8 9 9 6 3 2 3 6 4 11 16 14 14 19 24 25 26 26
7 7 8 18 20 20 16 17 19 16 2 3 4 5 6 6 5 10 13 13 13 9 9 11 4 3 3 8 9 7 8 13 15 15 18 23 27 27
7 12 21 22 23 18 19 16 16 2 3 2 4 5 4 4 8 6 12 15 15 15 15 17 9 7 6 9 10 8 10 8 12 8 14 14 12 15
10 7 11 16 19 15 12 8 2 3 3 3 3 2 2 4 5 3 4 5 6 8 15 18 18 12 9 8 9 9 8 8 4 7 7 11 16 18
11 6 6 6 7 7 4 3 3 3 3 3 4 6 6 6 6 4 5 6 7 8 8 5 14 17 13 11 10 9 9 9 9 9 9 10 10 13
10 7 7 8 5 4 4 3 2 6 3 3 4 5 6 6 6 6 5 6 8 8 8 7 4 4 7 10 18 10 9 9 9 10 10 10 11 10
7 5 6 5 3 3 3 3 3 3 4 4 5 5 6 7 10 8 7 7 9 8 8 7 6 5 9 11 8 18 8 8 8 9 9 10 11 10
6 5 2 3 3 3 3 3 3 4 7 6 6 7 7 7 8 8 8 9 9 9 9 9 8 8 9 11 10 10 23 11 11 10 10 10 12 27
2 1 2 2 3 3 3 4 4 5 7 7 7 7 7 7 9 8 9 17 17 9 9 9 9 18 8 7 7 9 9 24 22 12 11 11 12 12
2 2 3 3 3 3 3 4 4 7 7 7 8 8 8 8 9 9 9 9 9 9 11 10 10 8 7 9 12 14 11 12 23 29 32 27 13 15
3 3 3 3 4 5 4 5 7 8 8 8 8 8 8 8 8 9 9 9 9 10 11 11 10 9 11 11 15 12 16 14 11 12 13 29 34 36
Wind_Direction
32 107 108 343 41 44 54 71 119 342 321 357 95 72 49 311 316 311 288 303 302 307 306 304 305 303 301 298 297 299 301 299 303 305 305 307 308 310
94 20 355 338 315 272 243 201 192 173 249 353 360 329 355 344 328 316 289 284 289 295 293 291 293 295 297 297 294 292 291 290 294 296 297 300 303 307
326 211 271 296 299 271 257 236 242 225 233 286 297 314 328 324 314 315 309 305 292 287 289 285 283 284 288 291 290 290 290 288 289 291 294 297 298 298
268 281 267 264 251 255 263 256 245 234 218 266 277 295 307 316 309 309 300 287 283 291 290 285 284 285 285 285 284 285 285 287 288 289 290 292 295 294
246 240 242 252 256 254 257 249 238 248 236 242 275 256 267 288 292 292 284 292 278 283 289 287 289 294 293 288 284 281 283 285 284 284 285 285 287 291
236 231 237 239 238 247 259 256 257 258 256 254 249 273 262 267 254 274 286 279 275 279 289 300 292 295 298 289 286 281 280 281 280 280 281 281 280 282
252 235 226 235 246 237 227 236 245 253 253 256 255 257 270 266 253 259 260 279 274 271 274 283 296 297 293 286 280 279 281 283 282 281 281 281 282 284
256 263 264 267 269 263 263 254 232 224 242 245 252 247 253 258 263 276 271 266 276 256 245 273 273 276 282 280 285 287 286 287 281 279 280 281 282 282
237 244 242 244 250 231 253 267 272 274 254 229 235 243 254 239 260 275 269 264 266 268 268 267 262 269 270 273 282 282 283 283 283 280 279 282 282 281
240 240 241 247 244 249 235 238 242 248 264 274 257 240 241 246 241 249 247 254 260 256 246 263 253 261 268 267 275 281 287 289 288 286 288 286 282 279
251 249 246 240 249 262 257 231 237 243 261 271 273 272 272 272 269 261 259 263 268 272 267 272 258 261 235 256 277 285 285 281 280 278 277 279 275 277
257 250 261 259 251 252 248 222 230 252 253 263 267 272 277 281 277 275 272 268 266 276 250 248 248 217 285 236 266 278 295 303 289 290 291 299 291 276
251 257 256 263 264 266 266 220 230 251 256 252 255 264 258 255 254 254 250 239 259 259 259 264 212 223 210 271 275 281 274 281 291 292 291 288 283 278
235 249 257 265 268 269 272 272 268 271 289 242 236 257 264 263 256 257 260 260 260 266 288 282 268 245 256 278 278 276 265 267 271 271 271 272 274 275
242 245 254 256 258 265 275 281 280 268 224 214 245 258 258 264 279 279 293 294 291 286 282 271 263 257 242 264 275 269 272 268 253 253 259 262 264 262
287 282 276 269 263 255 261 270 228 214 210 227 242 233 263 277 275 254 265 273 272 279 269 258 256 257 258 253 255 263 253 252 252 252 254 260 264 263
260 250 247 254 255 264 242 225 223 224 227 226 240 259 264 266 265 255 254 267 266 274 274 260 256 251 249 252 260 254 256 253 254 257 257 264 264 261
267 253 235 237 233 215 205 221 219 257 224 231 239 243 257 261 266 263 255 256 268 273 275 272 263 271 271 259 253 263 258 254 255 256 254 258 268 262
277 268 257 222 186 207 209 207 223 230 236 240 256 254 261 264 277 274 266 264 267 270 271 270 261 253 273 274 275 265 264 258 256 252 251 254 262 263
273 264 204 201 207 210 218 222 233 252 265 261 260 261 256 256 262 260 260 261 264 268 271 265 256 255 252 263 271 271 268 265 261 261 262 265 267 271
263 254 240 224 223 221 229 232 231 248 261 257 255 256 256 253 257 259 262 268 268 264 264 263 257 262 262 270 267 270 265 259 252 253 262 265 269 273
241 240 253 242 234 228 233 232 239 254 259 256 258 257 256 254 256 258 256 260 260 262 264 269 274 269 261 259 266 270 271 273 270 264 262 259 260 265
265 257 249 243 248 250 239 248 253 259 257 256 259 258 254 253 252 255 257 257 262 262 261 267 268 262 258 260 262 267 263 265 268 273 268 262 260 259